Location: Piolenc
(44.1794°N, 4.7641°E)
Time: 03:42:19
(UTC+00:00)

Spot 2 - Pass Details

Date: 27 January 2021
Orbit: 569 x 774 km, 98.8° (Epoch: 27 February)

Event Time Altitude Azimuth Distance (km) Brightness Sun altitude
Rises 06:13:48 0° 10° (N) 2,784 7.3 -9.2°
Reaches altitude 10° 06:15:58 10° 6° (N) 1,883 6.4 -8.8°
Maximum altitude 06:19:56 57° 288° (WNW) 685 4.0 -8.2°
Drops below altitude 10° 06:23:58 10° 210° (SSW) 1,914 6.5 -7.5°
Sets 06:26:10 0° 206° (SSW) 2,833 7.4 -7.1°
